Starlink 30797

operational
NORAD ID: 58154 Int'l Des: 2023-166 Owner: SPXS Country: US Constellation: starlink
LEOCIRCULAR

关于 Starlink 30797

正在加载描述...

实时位置

正在加载3D地球...

即将过境

高度历史

Altitude vs Time

uPlot chart will show altitude changes over time

两行轨道根数

1 58154U 23166E 25259.16809192 -.00005753 00000-0 -18256-3 0 9997
2 58154 53.1578 310.4225 0001559 68.7569 291.3598 15.30144039106309
Epoch: Sep 16, 2025 • Age: 9 hours

当前状态

高度 477.9 km
速度 7.63 km/s
星下点 -6.54°S, 52.43°W
发射日期 Oct 29, 2023
运行时间 1.8 years
类型 internet

技术详情

分类 Payload
质量 730.00 kg
干质量 700.00 kg
总质量 730.00 kg
长度 0.30 m
直径 4.10 m
跨度 29.00 m
形状 Box + pan
制造商 SPXS
平台类型 Starlink V2M
阶段状态 In Orbit
所有者/国家 SPXS/US

大型星座

Loading constellations...